Theta_e
314 316 317 317 316 314 313 315 315 313 311 311 314 315 315 314 313 313 315 315 312 313 315 314 314 314 313 314 313 311 310 312 313 312 311 311 310 310 312 313 313 314 315 314 315 318 320 322 325 327 328 330 331 331 331 332 332 332 332 332 332 332 332 332 332 332 332 333 335 335 336 336 336 336 335 336 336 335 335 335 335 334 334 334 334 334
313 316 316 315 315 314 313 314 312 312 311 310 313 315 314 313 313 312 312 315 313 312 315 315 313 313 312 312 312 310 311 313 315 314 313 311 310 310 310 312 312 312 312 312 313 315 318 321 323 325 327 329 330 331 331 331 332 333 333 332 333 332 332 332 332 332 332 333 333 334 335 335 335 335 335 335 335 335 335 335 334 334 333 333 333 333
314 316 314 313 313 313 313 313 312 312 312 312 314 314 314 313 312 313 313 315 313 312 317 316 313 315 313 312 312 310 311 313 313 314 313 312 311 311 311 311 311 311 312 313 313 313 315 319 322 324 326 327 329 330 331 331 332 332 332 333 333 333 333 332 332 333 332 332 332 333 334 334 334 334 334 334 334 334 334 334 335 334 334 334 333 333
316 315 312 311 311 312 312 312 312 313 312 314 315 313 314 313 312 314 314 313 312 312 315 315 313 315 313 312 313 312 311 312 312 312 312 312 313 312 312 311 311 311 312 313 313 312 311 315 320 323 325 326 327 328 329 331 331 332 332 333 333 333 333 333 333 333 333 333 333 333 333 333 333 333 334 334 334 334 334 335 335 334 334 334 333 332
316 314 311 310 310 312 313 312 313 313 313 315 316 313 313 312 312 314 313 312 312 312 313 314 314 318 318 316 316 313 310 310 310 311 312 312 313 312 312 312 312 311 311 311 313 312 309 310 316 321 324 325 327 327 328 329 330 331 332 332 333 333 333 333 333 333 333 333 332 333 333 333 333 333 333 333 334 334 334 334 334 334 333 334 333 332
315 312 311 310 310 312 312 312 314 313 313 315 315 313 311 311 312 314 316 315 313 315 315 312 316 328 331 322 318 316 314 312 310 310 311 311 311 311 312 312 312 312 311 311 312 311 308 308 311 317 322 324 326 327 328 328 329 330 331 332 333 333 333 334 333 333 333 333 333 332 332 332 332 332 332 332 332 333 333 333 333 333 333 334 333 332
313 311 310 311 311 313 314 313 313 313 313 314 316 316 313 310 312 315 317 316 317 317 314 311 317 327 326 321 321 321 319 318 313 312 312 310 310 311 311 311 311 311 311 311 311 310 308 307 308 312 318 323 325 326 327 328 328 329 330 331 332 332 333 333 334 334 333 333 333 333 333 333 332 332 331 331 331 331 331 332 332 332 333 333 332 332
313 310 311 313 312 312 313 311 312 313 312 314 318 318 315 312 314 317 316 318 321 317 315 317 318 318 317 317 319 317 318 321 317 315 315 312 309 309 310 310 311 311 311 311 313 312 308 306 307 310 313 319 322 324 326 327 328 329 330 331 332 332 332 333 334 333 333 333 333 333 333 332 332 332 331 331 330 330 330 330 331 332 332 332 332 332
311 312 313 313 312 312 310 310 313 313 312 317 321 319 316 316 317 318 317 318 318 314 318 322 314 313 321 324 321 315 313 318 320 318 319 317 314 311 309 309 309 310 310 311 312 312 307 305 307 309 311 314 318 322 325 326 327 328 329 330 331 331 332 332 333 333 333 333 333 333 332 332 332 331 331 330 330 330 330 330 330 331 331 331 331 331
310 312 313 311 312 311 309 311 313 312 312 318 323 320 320 323 321 319 319 318 315 313 319 323 315 313 323 329 324 316 312 317 320 318 317 317 316 312 310 310 309 309 310 312 311 307 304 305 308 309 310 312 316 320 323 325 326 328 328 329 330 331 332 332 332 332 332 333 333 332 332 332 332 331 331 330 329 329 329 329 329 329 330 330 330 330
312 311 312 312 313 313 311 313 315 313 313 317 320 318 318 323 323 323 327 322 314 315 322 326 320 313 318 327 324 316 316 318 317 315 314 313 315 315 315 315 311 309 310 312 313 306 302 305 307 308 310 311 314 317 321 323 325 326 327 328 329 330 331 331 332 332 332 332 332 332 332 332 331 331 330 329 329 329 328 328 328 328 329 329 329 328
312 311 313 313 317 318 313 312 316 317 314 316 322 320 318 323 324 325 330 323 314 319 324 323 318 312 315 323 321 317 317 317 314 314 316 316 319 320 321 322 321 316 312 312 316 312 306 307 307 308 309 310 313 315 318 322 323 324 326 327 328 329 329 330 331 331 332 331 332 332 331 332 331 331 330 329 329 329 328 328 328 328 328 327 327 327
314 315 314 312 314 317 315 313 316 317 314 315 320 320 318 322 321 320 324 321 318 319 316 314 315 313 314 317 317 316 314 316 313 311 314 316 317 319 320 326 332 329 322 320 320 317 318 315 308 307 309 309 311 314 316 319 321 323 325 326 327 328 328 329 329 330 331 331 331 331 331 331 331 331 330 330 330 329 328 328 327 327 327 326 326 325
316 318 315 313 312 314 315 313 314 317 316 314 317 319 319 320 318 317 318 317 319 319 313 311 313 314 316 316 317 315 312 314 313 308 311 313 312 313 313 318 328 332 328 326 322 322 324 315 306 307 309 309 310 312 314 316 318 320 322 324 325 326 327 328 328 329 329 330 330 331 331 331 331 330 330 330 329 329 328 327 327 327 326 326 325 324
314 316 315 315 314 314 314 313 315 319 318 315 318 320 320 321 320 319 320 319 320 319 314 310 313 319 321 318 316 314 312 313 313 311 313 312 312 313 312 314 321 327 328 324 322 325 319 307 305 309 310 309 310 310 311 312 313 316 317 320 323 324 326 327 328 328 329 329 330 330 330 330 330 330 330 330 330 329 328 327 327 326 326 325 324 323
312 314 314 313 313 314 315 317 318 317 316 317 318 317 318 321 321 320 320 321 320 318 316 312 316 323 321 314 312 311 311 312 311 312 313 315 318 320 320 321 320 323 327 324 324 328 317 304 306 310 310 311 311 310 311 311 311 312 312 314 317 320 323 324 326 328 328 329 329 330 330 329 330 330 330 330 329 328 328 327 326 325 324 323 323 322
312 313 313 313 313 313 315 317 318 317 316 316 314 317 318 317 318 319 315 314 314 315 317 315 316 320 318 313 314 313 314 315 312 313 314 315 319 323 326 328 326 326 326 324 325 328 318 305 306 310 310 312 312 311 312 311 311 311 310 311 312 314 318 321 323 325 327 329 329 329 329 329 329 330 330 330 328 327 326 325 325 324 323 322 322 321
316 315 314 315 314 311 310 314 317 316 316 317 316 318 317 313 317 323 319 315 313 312 318 318 315 318 317 316 320 318 314 314 313 314 314 314 317 322 325 327 329 326 323 322 323 321 312 305 306 310 311 312 312 312 312 312 312 312 311 311 310 311 315 318 321 323 324 326 327 328 328 328 329 329 329 329 327 326 325 324 323 322 322 321 320 318
318 316 313 313 315 313 310 314 316 312 311 316 318 316 317 317 318 319 318 317 313 312 320 322 317 316 317 317 321 319 315 316 315 314 316 316 318 320 321 322 322 320 320 323 324 323 316 308 308 312 312 313 313 312 313 313 312 312 312 311 310 311 313 316 320 322 323 325 325 326 327 327 327 327 327 327 326 325 324 323 322 321 321 320 318 317
317 318 315 311 312 313 313 313 316 314 310 312 314 312 315 318 318 317 316 316 317 315 318 321 317 316 317 318 318 315 315 316 314 315 317 318 318 319 319 318 318 318 321 324 325 327 320 308 308 313 313 313 314 313 314 313 313 313 312 312 311 311 314 317 320 321 322 324 324 325 325 325 326 325 325 325 324 324 323 322 321 320 320 318 317 316
313 317 318 313 310 313 316 316 317 316 313 313 315 314 312 312 315 317 316 316 319 319 318 317 314 316 318 316 315 313 314 313 313 314 316 318 318 318 317 315 315 316 319 321 322 325 316 305 308 312 311 313 313 313 314 314 314 314 313 312 312 312 314 317 319 321 322 323 323 324 324 324 324 324 324 323 323 322 322 321 320 319 318 317 316 316
313 315 319 316 313 316 319 318 317 317 315 315 315 315 314 313 315 315 314 315 316 317 320 317 312 315 318 313 312 313 312 311 312 312 313 319 319 317 315 313 313 315 317 318 317 318 312 304 305 309 309 311 312 312 314 314 314 314 314 313 313 313 315 317 319 321 321 322 322 322 323 323 322 322 322 322 321 321 320 319 319 318 317 316 315 314
318 319 322 320 317 318 317 313 312 315 316 315 315 316 315 313 315 316 314 317 316 313 317 317 312 313 315 311 311 312 313 317 318 314 316 320 319 317 316 312 312 315 315 314 314 312 306 302 305 307 307 309 310 311 313 313 314 314 314 313 314 315 316 317 319 320 320 321 321 321 321 321 321 321 320 320 319 319 318 317 317 317 316 315 314 312
317 319 321 320 318 319 317 312 310 312 313 315 315 316 316 315 321 325 319 318 319 314 314 314 312 311 313 314 313 312 313 318 320 317 319 323 322 321 319 316 316 317 316 314 314 309 303 302 304 304 305 307 308 310 311 312 313 314 314 314 314 315 316 317 318 319 319 320 319 319 319 319 319 319 319 319 318 317 317 316 315 315 314 313 311 309
313 315 319 319 318 319 319 315 313 312 312 316 317 317 318 319 321 321 315 313 315 318 317 314 313 313 316 317 313 309 312 317 318 317 316 319 321 323 324 320 317 317 317 316 315 312 307 305 303 302 303 305 306 309 310 312 313 313 314 315 314 315 316 317 317 318 318 318 318 318 318 318 317 317 317 317 316 316 315 314 314 313 312 310 307 306
314 317 316 317 317 317 317 315 316 316 315 317 319 318 318 318 316 314 315 313 312 317 317 313 314 316 316 315 311 310 313 315 316 318 314 314 318 321 325 327 324 321 320 319 317 315 312 308 302 300 302 304 305 308 309 311 313 313 313 314 314 315 315 315 316 316 316 317 317 316 316 316 315 315 315 315 314 314 313 312 312 310 308 306 305 304
320 319 313 314 315 313 314 316 319 320 317 316 318 317 316 315 314 314 317 316 314 316 315 313 315 315 315 316 313 314 317 317 319 321 319 320 322 321 324 331 330 324 320 319 317 314 313 310 303 300 301 303 304 306 308 309 311 312 312 313 313 313 314 314 314 314 315 315 315 314 314 314 314 313 313 313 312 311 311 310 309 307 305 303 301 298
322 318 313 314 314 313 320 323 319 317 316 315 315 316 316 315 314 315 315 314 317 317 313 314 316 314 315 320 320 320 321 321 324 327 326 325 323 322 324 327 326 321 317 315 314 314 313 312 306 300 299 302 304 304 306 307 308 310 311 311 312 312 313 313 312 313 313 313 313 313 312 312 312 312 312 311 310 309 308 307 305 304 302 299 296 294
316 314 314 314 313 314 322 324 318 315 315 314 315 315 315 315 315 315 314 314 316 315 312 317 320 315 315 318 318 320 322 321 320 319 318 316 315 319 324 325 325 323 320 319 318 314 311 311 308 302 299 301 302 303 304 304 305 306 307 309 310 311 312 312 311 312 312 311 311 311 311 311 310 310 309 309 308 307 305 304 302 300 297 295 293 292
313 315 315 313 311 312 317 317 316 316 315 314 315 315 314 314 314 314 313 313 314 313 312 317 320 316 315 316 315 317 319 318 315 313 314 314 315 323 332 336 338 337 332 330 326 315 310 310 307 300 298 300 300 301 302 303 303 304 305 307 308 310 310 311 310 311 310 310 310 310 309 309 308 307 307 307 306 304 302 300 298 296 294 293 292 291
311 315 313 312 312 311 314 315 314 314 315 315 316 315 313 314 313 313 313 312 313 313 312 314 315 313 313 316 316 315 313 312 313 314 316 317 317 324 334 338 342 342 336 331 324 313 309 310 306 300 298 299 300 301 302 302 303 303 304 305 307 308 309 309 309 309 309 308 308 308 307 307 306 305 305 304 303 301 299 297 295 293 292 291 291 290
312 313 311 313 315 312 313 316 314 311 312 314 316 315 314 313 313 312 313 313 313 313 313 314 314 312 313 315 314 313 311 312 314 314 316 317 318 321 326 329 333 336 335 330 321 313 311 311 308 303 300 299 300 301 302 302 302 302 303 305 306 307 307 307 307 307 307 307 307 306 305 305 304 304 303 302 300 298 295 294 293 292 291 290 290 290
316 315 314 316 317 313 312 315 316 313 312 313 315 314 312 312 312 312 313 313 312 312 313 313 313 314 315 313 312 313 313 313 314 314 315 316 317 318 319 321 325 327 329 329 323 317 314 310 305 302 301 301 301 302 303 303 302 303 304 305 305 306 306 305 305 305 305 305 305 304 303 303 302 302 301 299 297 295 293 293 292 291 291 290 290 290
318 318 316 315 315 315 312 313 315 315 313 314 316 316 313 312 313 312 313 313 312 311 312 311 312 315 316 314 313 314 313 313 313 314 314 314 315 317 317 318 320 321 322 321 318 316 312 306 303 302 302 302 303 302 303 303 303 303 303 303 303 304 304 303 303 303 303 303 302 302 301 300 300 299 298 296 294 293 292 292 291 290 290 290 289 289
316 316 315 315 317 316 311 313 316 315 313 316 320 318 313 311 312 313 312 312 311 311 311 311 311 314 315 315 314 314 313 313 314 316 316 313 313 315 317 317 316 317 318 317 316 315 309 303 302 303 303 303 303 302 301 301 301 301 301 301 301 301 301 301 301 300 300 300 299 299 298 298 297 296 295 293 292 292 291 290 290 290 290 289 289 289
313 313 314 314 314 313 311 313 315 314 313 317 319 313 309 311 312 312 313 312 311 311 311 311 310 311 312 312 313 314 314 313 314 315 313 312 312 311 313 314 314 316 317 314 314 313 306 302 303 303 303 303 302 301 301 301 300 300 299 299 299 299 299 298 298 297 297 297 296 295 296 295 294 293 293 292 291 290 290 290 290 289 289 289 288 288
311 311 312 310 310 314 315 313 314 314 313 315 315 311 310 313 312 312 314 313 311 310 310 310 310 310 311 312 313 313 311 310 311 311 310 315 316 312 309 310 311 312 310 306 305 305 303 302 304 304 303 303 302 302 302 301 300 300 299 298 298 297 297 296 295 295 295 294 294 294 294 294 293 292 291 290 290 290 289 289 290 289 289 289 288 288
310 312 313 311 311 315 317 314 314 314 312 312 315 313 311 312 313 313 314 314 312 311 310 310 310 311 311 312 313 311 309 309 311 311 313 317 316 312 310 309 305 303 303 302 301 303 303 304 304 304 304 304 302 302 302 300 299 299 298 297 297 296 295 295 294 294 294 294 294 293 293 292 292 291 290 290 289 289 289 289 289 289 289 289 288 288
313 313 313 313 312 313 315 314 313 312 311 314 317 314 312 312 314 314 314 314 313 314 313 310 310 312 311 311 312 311 311 311 311 312 316 320 317 313 313 312 305 299 299 301 301 301 303 304 304 304 304 303 302 302 301 300 299 298 297 296 296 295 294 294 294 295 294 294 293 292 291 291 290 290 290 289 289 289 289 289 289 289 288 288 288 287
313 312 312 314 313 312 312 313 313 311 313 318 317 312 310 311 313 315 317 315 314 317 318 313 311 312 311 310 313 313 313 313 311 311 317 321 317 312 309 311 310 302 299 300 301 301 302 303 303 303 303 303 303 302 300 299 298 297 296 295 294 294 294 294 295 294 294 293 292 291 290 290 290 289 289 289 289 289 289 289 288 288 287 287 287 287
313 313 313 313 313 312 312 313 314 313 316 321 318 310 309 312 312 314 317 316 315 317 316 313 314 314 311 311 313 313 312 311 310 314 321 319 316 314 307 301 300 299 298 299 301 301 301 302 303 303 303 303 303 301 300 299 297 296 296 294 293 294 295 295 294 294 293 292 291 290 290 290 289 289 289 289 289 289 289 288 288 287 287 286 286 286
313 314 314 312 312 313 313 312 314 314 315 317 313 307 308 312 313 313 314 314 316 318 315 313 318 318 312 312 313 312 312 311 308 313 320 319 319 323 315 302 299 301 299 299 300 301 301 301 301 302 302 301 301 300 299 298 296 295 295 294 294 295 295 294 293 293 292 291 290 290 289 289 288 288 288 288 289 288 288 287 287 286 286 286 286 286
311 312 312 311 311 314 314 312 313 315 312 311 309 307 309 314 317 317 316 313 315 323 322 316 319 320 314 313 313 311 312 313 310 309 314 316 317 320 314 306 303 302 299 298 299 300 300 300 300 299 300 299 299 299 298 297 296 295 294 294 294 294 294 293 292 292 291 290 289 289 288 288 288 287 288 288 288 287 287 286 286 286 285 285 286 285
312 312 312 311 310 313 314 311 312 315 310 307 309 309 309 314 319 321 318 314 313 319 321 319 320 317 312 316 321 316 313 315 314 311 312 314 316 317 314 306 299 295 295 296 298 299 298 299 298 297 298 298 298 298 298 297 296 294 294 294 294 293 293 292 291 290 289 289 288 287 287 287 287 287 287 287 286 286 286 286 285 285 285 285 285 285
311 311 313 314 311 312 313 310 312 315 310 306 311 313 309 310 314 317 318 318 317 315 312 315 320 316 308 313 321 320 316 317 317 314 312 313 315 317 314 306 296 293 294 295 296 297 297 297 297 296 296 296 297 297 297 297 296 295 294 294 293 293 292 291 290 290 289 288 287 287 286 286 286 286 286 286 286 286 286 286 285 284 284 284 284 285
313 312 314 316 313 311 311 311 312 314 309 306 310 316 313 309 310 313 317 318 321 319 312 313 321 323 313 308 311 315 317 319 319 317 314 313 314 312 308 303 295 291 292 293 294 295 295 295 296 296 295 295 295 296 296 296 296 295 294 293 293 292 292 291 290 289 288 287 287 286 286 285 285 285 285 285 285 286 286 286 285 285 284 284 284 284
312 312 312 315 314 311 311 312 311 312 311 308 308 312 314 311 309 310 316 318 321 321 315 314 322 324 314 307 310 315 318 317 318 319 316 315 315 312 311 309 299 291 291 293 293 293 294 294 294 293 293 293 294 294 294 294 294 294 294 293 292 292 291 290 289 288 287 286 286 285 285 285 285 285 284 284 284 284 285 285 285 285 284 284 283 283
311 310 312 315 313 310 311 312 310 309 310 308 307 310 313 314 312 311 313 314 315 315 312 311 314 317 316 314 313 315 316 316 317 319 319 316 312 308 306 302 294 289 290 292 292 293 293 293 292 292 292 292 293 293 293 293 293 293 293 292 292 291 290 289 288 288 286 285 285 284 284 284 284 284 284 283 283 283 284 284 284 284 285 285 285 284
309 309 313 314 312 310 310 310 308 308 309 308 309 312 316 317 315 312 309 309 313 316 315 311 308 309 313 315 312 312 316 316 313 313 316 315 308 301 296 293 290 290 291 291 291 292 292 292 292 292 291 292 293 292 292 292 292 292 292 292 291 290 289 288 287 286 285 284 283 283 283 282 283 283 283 283 282 283 283 284 284 284 285 285 285 285
308 311 313 312 311 310 309 309 310 311 311 311 310 311 313 312 311 310 309 310 313 316 317 315 309 304 302 303 303 307 314 314 307 305 309 309 302 295 291 289 288 289 290 290 291 291 291 292 292 291 291 291 291 291 291 291 291 291 290 290 290 290 289 288 286 284 283 282 282 282 281 281 282 282 282 282 282 282 282 282 283 284 284 284 284 285
310 312 310 310 311 310 310 310 309 308 312 314 311 310 310 309 309 311 310 311 311 309 310 315 315 310 305 300 296 298 307 309 302 301 307 306 296 291 290 290 289 289 289 289 290 289 288 289 289 289 289 290 290 290 291 290 290 290 289 289 289 289 288 287 285 283 282 281 281 281 281 281 281 281 281 281 282 282 281 281 281 281 282 283 284 285
Wind_Speed
3 4 3 4 5 6 5 5 3 2 2 3 1 1 1 3 3 4 4 5 1 4 6 7 8 10 11 11 10 3 1 4 6 7 8 8 7 7 8 8 9 10 12 14 15 19 24 28 31 32 32 32 31 33 34 35 37 38 38 38 38 39 38 38 37 37 37 36 35 34 35 36 35 34 32 32 32 30 29 28 26 26 25 24 24 24
4 5 6 6 8 8 7 7 5 7 5 1 1 3 4 2 5 6 4 4 1 3 4 2 5 11 11 11 9 2 3 6 8 9 10 10 9 7 8 10 11 10 10 10 11 17 21 25 28 30 31 32 32 34 36 36 38 39 38 39 39 39 39 39 39 38 38 38 37 36 36 36 34 34 34 34 33 32 30 29 28 27 25 25 24 24
3 5 9 9 9 8 7 8 8 8 7 2 0 2 4 2 4 7 4 2 1 2 3 2 3 9 10 11 9 4 6 8 9 10 11 10 9 8 9 11 11 9 10 10 10 14 20 24 26 29 30 33 35 36 36 37 37 38 38 39 39 39 39 40 40 39 39 38 38 37 35 34 33 33 33 34 33 32 31 31 29 28 26 25 24 23
4 8 12 10 7 9 9 8 10 8 6 3 2 3 4 2 1 4 4 1 2 0 1 1 2 7 8 7 9 7 8 8 8 9 9 7 8 10 11 9 9 11 12 11 10 12 17 20 22 27 30 33 34 34 35 37 37 38 39 39 39 39 40 40 41 41 40 37 36 35 34 32 31 31 31 31 32 32 32 31 30 28 27 26 24 22
7 4 9 10 8 12 11 9 10 8 4 4 5 4 5 4 4 4 4 3 3 3 2 2 4 6 5 5 8 6 2 6 8 7 9 8 8 10 8 8 9 11 12 12 11 11 13 17 22 28 32 32 32 33 35 38 39 39 39 40 40 40 40 40 41 41 40 37 34 33 31 28 27 28 28 28 31 32 32 31 30 28 27 26 24 22
8 2 10 11 8 10 11 10 11 8 4 4 5 6 8 8 4 4 3 4 3 4 2 0 2 5 4 4 9 5 4 6 5 4 10 10 8 9 8 10 11 11 11 10 11 11 12 17 21 25 28 29 31 35 37 38 39 40 39 39 40 40 40 40 40 40 40 38 36 33 31 28 27 27 29 30 31 30 30 30 29 28 27 26 25 23
4 2 9 11 8 9 9 8 9 8 5 3 5 7 9 8 5 4 1 1 1 4 4 1 4 6 5 4 8 4 6 9 6 5 10 10 8 9 10 11 12 11 10 9 10 10 11 16 18 21 26 29 33 37 38 37 38 38 38 39 40 40 40 40 39 39 40 39 38 36 35 34 32 30 31 31 29 27 27 27 27 27 26 26 25 23
5 7 7 8 8 8 7 6 8 9 6 3 5 8 8 7 8 7 5 4 3 3 4 3 3 3 5 5 6 3 4 9 9 8 10 9 10 11 11 12 12 12 10 9 10 10 11 15 18 23 28 33 36 38 36 36 36 37 37 38 39 39 40 40 39 39 39 40 39 38 37 36 35 34 32 28 25 24 23 23 24 25 25 24 23 22
6 11 12 11 8 7 7 7 9 9 6 5 5 6 6 5 7 6 6 5 2 2 4 4 1 2 5 6 5 3 3 8 9 10 11 10 11 11 11 12 12 11 9 8 10 10 12 17 22 25 28 31 34 34 34 35 36 36 36 37 37 38 39 39 39 39 39 39 39 38 37 35 35 34 31 27 24 22 22 22 22 22 22 22 21 20
2 8 11 13 9 8 9 8 9 11 7 4 4 5 3 2 2 3 5 4 1 1 5 6 2 3 5 6 4 2 2 6 9 9 9 9 9 9 9 10 10 9 7 8 9 10 14 18 21 23 23 24 26 28 30 31 32 33 34 35 36 37 38 38 38 39 39 39 38 38 37 36 34 32 29 25 23 21 20 20 20 20 20 20 20 19
1 1 3 7 6 7 8 4 5 9 6 5 6 5 4 3 4 3 2 3 2 4 6 6 4 3 5 5 4 4 5 7 8 8 9 8 7 7 8 9 9 7 7 8 8 10 15 18 19 18 19 21 21 23 26 27 28 30 32 33 35 36 36 37 37 38 38 38 38 38 38 36 35 32 29 25 23 22 21 20 19 19 19 19 19 18
4 3 1 2 2 5 6 3 2 2 3 3 4 4 3 1 2 2 3 2 4 6 5 4 2 3 5 5 4 6 6 6 8 8 10 9 8 7 7 7 7 7 6 7 7 8 10 12 14 16 18 20 20 21 24 26 27 28 30 31 33 34 35 35 36 37 37 38 38 39 38 36 35 33 30 28 26 24 23 21 19 19 19 19 18 17
2 1 2 1 1 4 7 5 1 3 2 2 3 5 4 1 0 2 2 1 5 5 2 1 1 3 6 7 8 10 10 10 10 9 9 9 8 8 8 7 6 5 5 6 6 6 6 7 10 14 17 19 20 21 23 25 27 27 28 29 31 33 34 34 35 36 37 37 38 38 37 36 35 33 31 29 27 26 24 22 21 21 21 20 19 19
2 5 2 2 1 2 7 7 3 2 3 4 4 5 5 3 3 5 3 1 4 4 2 2 2 3 4 5 11 14 15 13 9 8 9 9 9 10 8 7 6 6 5 5 5 5 5 6 8 11 13 14 17 19 20 22 25 26 27 28 30 32 32 32 34 35 36 37 37 37 36 36 34 32 31 29 27 27 25 24 23 23 23 22 21 20
7 4 4 4 2 3 7 7 7 7 5 6 5 4 5 5 4 4 3 3 4 3 2 2 1 3 3 4 8 11 11 10 7 6 7 7 8 8 8 7 7 7 6 5 5 5 5 6 8 9 9 11 12 14 16 19 21 23 25 26 28 30 30 31 32 33 35 36 36 35 35 34 33 32 30 29 27 27 26 24 24 23 23 22 21 20
9 5 3 1 0 5 7 4 4 8 6 4 2 3 4 6 5 2 2 4 3 1 2 2 3 4 4 7 9 7 7 8 7 7 6 7 7 5 7 8 7 6 6 5 5 5 5 7 8 9 9 10 11 12 14 15 18 20 23 24 26 28 29 29 31 32 33 34 34 33 33 32 31 30 29 28 27 26 26 25 24 23 22 21 20 20
7 2 4 2 2 2 5 4 2 4 5 2 2 4 5 4 6 3 2 1 3 2 4 1 3 5 3 8 10 7 8 9 7 6 6 8 7 5 7 8 6 6 6 5 5 5 5 6 7 9 10 11 11 12 13 14 16 17 19 22 23 25 26 27 28 30 31 31 31 31 31 30 30 29 28 28 27 26 25 24 23 22 21 20 20 19
6 2 3 1 2 2 2 4 2 1 4 5 4 6 3 1 3 3 2 1 2 5 5 0 4 5 2 5 7 7 10 11 9 7 7 7 6 6 9 8 6 6 5 5 5 4 5 5 6 8 9 10 11 12 14 14 15 16 17 19 22 23 25 25 26 27 29 29 30 30 29 29 28 28 27 27 27 26 25 24 23 22 21 20 19 18
5 4 2 0 3 1 3 5 2 2 2 4 4 3 4 3 2 1 3 3 1 4 5 3 3 4 5 6 4 5 9 10 9 7 7 7 6 7 9 8 7 6 5 5 5 4 5 5 6 7 8 10 11 11 13 14 15 16 17 18 19 21 23 24 24 25 26 26 27 28 28 27 27 27 27 26 27 26 25 25 23 22 21 20 19 18
4 4 1 2 1 0 3 2 6 2 2 2 1 2 2 2 4 3 3 3 3 4 4 3 4 4 7 6 6 9 11 10 10 7 6 7 7 7 8 7 6 5 5 6 5 5 4 6 7 7 8 9 10 11 11 12 13 15 16 17 18 19 19 21 22 23 23 24 25 25 25 26 26 26 26 26 27 26 25 25 24 23 22 21 20 19
3 3 3 1 2 2 1 3 7 7 4 3 3 4 2 1 2 2 1 2 3 4 3 3 6 7 6 5 9 12 11 12 13 9 7 7 6 7 7 7 5 5 6 6 5 5 4 6 8 7 7 8 9 9 10 10 11 12 14 16 17 18 18 19 20 21 23 23 24 25 25 26 26 26 26 26 26 26 25 24 24 23 23 22 21 20
3 3 5 3 1 3 4 4 5 7 7 7 6 7 7 4 3 3 5 1 2 3 4 3 8 10 5 6 9 11 11 12 10 6 5 6 7 7 6 6 6 6 6 5 4 4 4 6 8 7 7 8 8 9 9 10 11 11 13 14 15 17 19 20 21 22 23 24 24 25 26 26 26 26 26 26 26 25 24 24 24 24 23 22 21 20
3 5 5 2 3 5 4 3 2 2 2 3 3 5 6 5 5 5 6 3 0 3 2 2 7 9 3 7 9 10 9 7 3 2 4 7 7 6 6 5 5 5 5 3 3 4 4 6 7 7 8 8 8 9 10 11 12 12 13 14 16 18 19 21 23 23 24 24 25 26 26 26 26 27 27 26 25 24 24 24 24 24 23 22 21 20
3 5 4 1 2 3 4 4 2 1 2 1 3 1 4 4 4 5 5 3 3 4 2 1 7 6 2 2 4 5 3 2 3 4 5 6 6 5 6 5 4 4 3 1 2 3 4 5 6 7 8 9 10 10 11 12 13 14 15 16 17 19 20 22 23 23 24 25 25 26 26 26 26 26 26 26 25 25 25 25 25 24 22 21 22 22
4 3 5 4 2 3 3 3 3 1 1 2 2 1 3 4 6 3 1 2 2 6 7 5 8 5 4 4 3 3 3 3 5 4 3 4 5 5 5 4 3 3 1 1 3 3 4 5 6 8 10 11 11 12 13 14 15 16 17 17 18 19 21 21 23 23 24 25 25 25 26 25 25 25 25 25 25 26 26 26 25 23 22 23 24 24
5 5 5 7 6 5 7 7 6 5 3 2 4 6 7 7 8 6 2 2 7 7 10 10 9 4 5 5 4 2 5 4 5 4 1 5 6 5 5 4 2 3 3 4 5 4 5 5 6 8 10 12 13 14 15 15 16 17 18 18 19 20 21 21 22 23 24 25 25 25 25 25 25 25 26 26 27 26 26 25 24 24 24 26 27 27
3 3 6 10 12 12 12 9 6 10 9 8 9 11 11 10 11 7 3 6 7 4 7 12 6 1 5 5 2 5 5 5 5 3 3 5 6 6 6 5 3 3 4 5 5 6 6 6 6 9 11 13 15 15 16 17 18 18 19 19 20 20 21 21 21 23 23 24 24 25 25 26 26 27 27 27 27 26 26 25 25 26 27 28 29 30
4 5 10 13 15 11 7 6 8 13 14 14 13 12 12 10 10 10 11 10 6 4 8 6 6 5 6 5 5 6 5 6 7 6 6 6 5 4 3 3 3 4 5 6 7 7 7 7 7 9 13 15 16 17 18 18 18 19 20 20 21 21 21 22 22 23 23 24 25 26 27 27 27 27 27 27 27 26 27 27 28 29 30 30 31 31
6 9 11 13 13 5 3 6 11 13 11 10 13 15 16 14 15 18 20 13 7 9 11 5 8 11 8 6 8 7 7 8 6 5 5 4 2 1 1 3 5 7 7 7 8 8 8 8 7 9 13 16 17 18 18 18 18 19 19 20 21 22 22 23 24 25 25 26 27 28 28 28 27 27 27 27 28 28 28 30 31 32 32 32 31 31
6 8 7 10 11 4 3 6 11 12 9 8 12 16 17 19 22 22 22 17 14 18 13 2 6 11 7 7 9 9 8 6 2 2 3 3 1 3 4 5 6 8 8 8 9 9 8 8 8 10 13 16 18 20 20 20 20 20 21 21 22 23 24 25 26 26 27 27 27 28 28 28 27 28 28 29 30 31 31 32 33 33 33 33 32 31
3 4 3 7 7 2 2 4 5 7 8 8 11 14 17 21 22 21 18 13 13 17 12 8 15 14 5 7 9 9 5 2 5 7 6 5 4 4 5 6 7 8 9 9 10 8 8 8 8 10 14 18 22 23 23 24 24 23 23 24 25 26 26 27 27 27 27 27 27 28 28 29 29 29 30 31 32 34 34 35 35 35 34 33 32 31
3 2 2 6 6 4 1 5 5 3 4 2 9 16 20 20 16 14 11 11 14 14 10 10 15 10 5 8 8 5 3 4 9 11 8 7 6 7 7 8 9 9 9 10 10 8 9 10 10 12 17 21 24 26 28 28 26 27 27 28 28 28 28 29 29 29 29 29 29 30 30 31 32 32 33 34 35 36 36 36 36 36 35 35 33 32
5 5 2 5 7 4 1 6 7 7 4 5 12 16 18 15 11 9 9 14 16 11 8 12 12 5 6 7 7 6 8 10 11 10 8 8 8 8 9 10 10 10 10 10 10 10 11 11 13 17 21 24 26 30 32 31 30 32 32 32 31 31 31 31 31 31 31 31 31 33 33 34 35 36 37 38 38 38 38 38 37 37 36 35 34 32
7 8 4 4 5 3 2 6 7 5 6 10 8 10 15 14 12 12 14 17 17 13 12 13 8 4 6 8 10 11 11 10 9 9 10 8 7 8 9 10 11 10 10 10 10 10 10 11 16 21 24 26 29 30 30 30 31 31 31 31 31 32 33 32 32 32 32 33 34 35 36 36 38 39 39 40 39 39 39 39 38 37 36 35 34 32
12 9 4 3 4 3 4 7 6 7 12 8 3 3 14 17 17 20 21 18 16 16 17 17 11 7 8 9 9 9 9 8 8 10 10 9 8 9 9 10 10 10 10 10 10 10 11 13 17 21 24 27 27 26 26 28 29 27 27 28 30 31 32 32 32 32 33 34 35 37 38 38 39 39 39 40 40 40 40 39 38 37 36 34 33 31
13 10 4 3 3 3 4 6 9 8 6 5 5 2 6 9 10 13 14 13 12 13 14 18 17 13 11 10 8 7 6 5 6 7 7 8 9 9 10 10 10 11 11 11 11 12 15 18 21 22 22 22 22 23 25 28 28 26 26 27 28 29 29 30 30 30 31 33 35 36 38 38 38 38 39 40 39 39 39 38 37 37 35 34 32 30
11 10 6 3 2 3 5 5 5 6 8 8 7 3 5 7 8 9 7 11 14 14 15 17 17 13 11 11 10 7 3 1 6 6 5 8 12 11 10 10 10 11 11 13 16 16 17 18 19 18 18 17 19 24 26 27 28 27 27 27 28 28 28 28 28 29 31 32 34 36 38 38 39 39 40 40 40 39 39 38 37 36 35 34 32 29
7 7 9 8 3 4 5 2 3 5 10 10 5 6 8 9 11 12 6 9 12 14 15 15 13 10 11 12 11 5 3 2 9 7 5 12 15 11 10 11 12 13 15 16 17 16 15 15 15 16 17 18 20 25 27 28 29 29 28 29 30 30 30 30 30 31 33 35 36 38 38 39 40 40 41 41 40 40 39 38 38 36 34 34 32 30
6 2 6 7 3 4 6 5 6 9 10 5 6 9 10 10 12 11 2 9 8 9 12 12 12 12 14 14 8 5 4 6 9 6 7 13 12 9 10 11 12 15 19 18 16 15 14 13 12 13 16 19 22 25 28 30 31 31 30 31 32 31 31 33 35 36 37 37 37 38 38 38 39 39 40 41 40 39 39 38 37 35 33 33 32 30
6 3 4 6 5 6 7 6 5 6 6 5 8 10 10 10 14 12 2 10 7 9 11 13 14 15 14 10 5 6 6 9 8 7 9 9 6 7 9 10 10 12 15 16 15 15 14 12 12 14 18 22 24 26 28 31 31 32 31 31 31 31 33 37 38 37 37 36 36 37 37 37 38 38 39 40 39 38 38 37 36 34 33 31 30 29
4 2 3 6 6 6 7 6 5 5 6 8 7 9 12 11 10 8 9 8 6 8 9 11 12 12 10 8 6 6 9 11 8 5 3 2 4 6 7 8 10 10 12 13 12 11 11 13 15 17 19 21 22 25 29 32 31 31 30 29 30 34 38 38 36 35 36 36 37 38 38 38 39 39 39 39 39 38 37 35 35 34 32 31 29 28
5 4 2 5 7 5 5 5 4 6 7 8 6 6 9 9 6 9 8 4 6 8 7 8 10 10 8 9 9 8 9 10 7 4 3 3 5 6 6 6 7 8 9 10 8 8 11 13 15 16 16 17 20 24 29 31 31 29 28 29 33 38 36 34 33 34 36 36 36 38 38 38 38 38 39 39 39 38 36 34 33 32 31 30 29 27
9 7 4 5 6 3 3 5 4 7 7 12 13 5 4 6 7 7 3 2 5 8 7 7 8 7 8 9 9 10 10 9 7 6 7 7 6 6 6 6 6 7 8 7 7 9 11 12 13 14 14 15 19 23 28 30 29 27 27 30 32 31 29 29 32 33 33 33 34 35 35 36 36 37 37 37 37 37 36 33 32 31 30 30 29 27
7 8 7 7 6 5 7 9 7 4 7 15 16 10 10 9 6 7 8 5 4 5 6 7 8 7 9 9 9 9 9 9 8 7 7 7 7 7 7 6 7 8 8 9 8 9 11 12 12 12 13 15 19 24 28 30 29 26 27 29 28 26 26 28 30 30 31 31 32 33 33 34 34 35 36 36 36 35 34 33 32 31 30 29 29 28
10 9 6 5 5 5 7 8 5 2 6 11 9 8 14 14 7 6 10 8 5 5 5 6 8 9 9 9 8 7 7 8 8 7 6 6 7 7 7 7 8 8 8 9 8 8 11 12 11 12 14 15 19 23 27 30 29 28 28 28 26 27 29 30 30 31 32 32 32 33 34 33 33 34 35 36 36 36 35 34 33 32 30 29 29 28
5 4 4 3 2 4 5 5 4 1 3 8 5 2 9 14 9 5 7 7 6 7 7 7 9 9 9 9 8 6 7 8 7 7 6 6 6 6 6 7 8 7 7 7 7 8 10 10 11 13 14 15 19 23 26 28 29 28 27 26 25 27 30 31 32 33 33 34 34 35 35 35 34 34 34 35 35 35 35 36 35 33 32 30 28 27
3 4 4 3 5 5 7 8 8 6 6 10 8 3 3 6 5 5 5 5 6 7 8 8 7 6 7 8 9 9 9 8 7 7 6 5 6 6 6 6 6 6 6 7 7 9 10 11 12 14 15 16 20 22 24 26 27 26 25 25 26 28 30 32 33 34 34 35 36 36 36 37 36 36 35 35 34 33 34 34 35 34 33 31 29 27
3 5 5 3 6 7 6 5 4 4 4 7 7 3 3 4 6 6 4 3 3 4 5 5 4 5 6 7 9 10 8 6 7 7 6 5 6 6 5 6 6 6 6 7 8 10 12 13 13 14 16 17 19 21 23 25 25 25 24 25 27 29 30 32 34 34 35 35 36 36 37 37 37 37 36 35 34 34 34 34 34 34 34 32 31 29
5 7 7 6 6 5 5 2 4 5 0 5 6 7 7 7 8 8 4 4 4 3 4 3 2 3 5 5 5 7 7 7 7 6 5 5 5 4 4 5 6 7 8 9 10 12 14 15 15 16 17 17 18 21 22 23 24 24 24 25 27 29 31 32 33 33 33 34 34 35 35 35 36 37 37 36 34 34 34 34 34 33 32 31 30 28
6 6 5 5 6 8 8 6 7 5 3 6 9 12 11 7 6 7 5 5 5 5 6 5 1 1 1 1 2 5 4 3 2 3 4 4 2 3 5 6 7 8 9 10 11 13 16 16 16 16 16 16 17 20 21 23 24 23 24 25 28 30 32 33 32 31 32 33 33 34 35 35 35 35 36 36 36 34 32 30 30 30 29 29 27 25
7 8 8 8 9 10 9 10 10 8 7 7 8 10 9 5 7 8 7 7 7 5 6 6 4 2 1 2 2 4 3 1 1 3 3 4 3 3 4 6 8 8 10 11 12 13 14 14 14 14 14 15 16 19 21 23 24 24 25 26 28 31 33 34 33 32 32 34 35 36 36 36 36 36 36 36 37 36 33 29 26 25 25 25 24 23
Wind_Direction
123 127 186 189 185 189 179 175 203 271 205 195 257 356 230 228 269 259 259 301 185 174 236 216 219 243 247 257 258 251 155 228 248 246 241 242 236 233 233 239 240 235 243 250 243 234 231 228 225 223 222 221 221 221 222 222 221 221 222 223 223 223 222 222 222 222 222 222 222 223 226 228 230 232 233 236 237 238 240 242 244 246 248 250 250 250
110 152 202 202 189 184 172 170 203 254 259 269 15 325 307 265 267 270 253 307 324 179 261 249 226 254 254 260 265 188 178 240 233 230 239 234 229 232 232 238 240 243 256 258 247 236 231 228 224 222 220 219 219 220 220 220 221 221 222 222 224 223 221 221 222 222 222 223 223 224 225 227 230 232 234 236 238 239 241 243 244 246 248 251 251 251
125 211 213 198 186 171 167 175 192 237 251 236 192 246 275 274 278 284 260 274 16 179 275 343 222 259 261 261 266 217 206 240 229 223 236 230 223 227 226 234 237 243 255 249 242 236 229 226 222 219 218 218 219 220 219 220 221 221 221 222 223 223 222 222 222 223 223 225 226 228 229 230 231 234 237 239 240 241 242 243 244 246 248 250 251 251
175 228 206 181 166 162 174 189 192 226 242 208 214 222 243 249 225 286 294 330 9 86 212 67 266 273 273 276 276 241 216 243 246 236 244 236 222 226 227 233 233 232 242 243 239 236 228 225 221 218 218 219 219 219 219 219 220 220 220 221 222 222 223 223 223 223 225 226 227 228 230 233 234 237 239 239 240 240 241 241 243 245 247 248 250 251
200 209 158 153 165 173 178 190 196 216 234 216 218 214 240 246 214 255 306 347 336 346 96 82 338 296 270 272 271 263 250 261 259 255 260 251 234 241 250 251 237 229 234 237 237 234 224 221 220 219 219 219 217 218 219 219 219 219 220 221 222 222 223 223 223 224 224 223 223 223 225 228 231 234 235 236 237 237 238 239 241 243 245 246 248 249
229 192 133 151 176 180 180 191 198 199 206 233 223 211 238 253 261 287 330 19 358 317 303 143 290 284 295 277 253 277 340 285 264 255 254 252 243 243 251 249 241 237 235 233 237 236 225 223 223 223 221 218 218 220 221 220 220 220 220 221 222 223 223 223 223 223 222 221 220 219 218 219 222 226 229 231 234 235 237 239 242 243 245 246 247 249
230 137 144 161 173 180 189 200 199 184 181 235 212 199 230 248 260 269 259 65 273 268 297 75 189 255 315 296 252 289 327 286 281 269 255 252 245 235 235 240 241 241 238 233 239 238 230 226 223 224 223 219 220 224 223 222 222 220 220 221 222 223 224 224 224 222 221 220 220 220 220 221 221 224 229 232 234 237 239 242 243 244 244 245 246 247
140 135 159 166 167 182 197 206 201 180 171 225 216 195 207 221 231 232 200 200 237 261 314 12 140 231 288 266 261 320 317 289 289 274 263 252 242 238 234 237 238 238 234 229 235 234 231 228 222 223 224 222 224 226 224 222 222 221 220 221 222 223 225 225 224 222 221 220 220 221 222 223 224 227 231 233 235 238 240 242 243 243 243 243 243 243
132 161 178 170 170 193 199 204 194 175 182 229 215 184 185 194 211 210 185 202 264 324 295 307 128 204 269 273 297 341 285 283 283 266 261 251 241 240 240 242 243 242 236 227 231 232 231 229 226 227 228 228 228 226 223 223 223 223 222 221 222 223 224 224 224 224 223 223 222 222 222 223 226 229 231 233 235 237 239 240 240 239 238 237 236 237
149 186 178 168 181 198 196 204 186 176 195 211 146 106 87 92 106 137 160 169 111 282 251 256 213 204 266 277 296 327 272 265 268 262 258 252 248 247 250 255 253 249 240 230 233 235 234 234 233 235 236 235 232 228 226 225 223 222 222 221 221 223 224 224 224 224 224 225 223 223 222 223 225 227 228 229 230 233 235 235 233 232 230 230 228 227
306 286 150 165 187 184 180 187 169 177 185 140 114 85 60 53 55 68 95 107 137 250 249 246 233 216 266 275 242 229 229 225 238 259 266 262 265 261 256 259 257 249 240 234 236 240 240 241 242 241 241 239 236 231 228 226 224 222 221 220 221 222 223 223 224 224 225 225 224 224 224 224 225 224 223 222 223 226 228 227 226 224 222 220 219 219
24 74 148 191 169 126 132 145 91 130 169 128 117 121 112 23 25 27 10 68 202 244 258 262 263 216 240 261 239 238 251 234 223 239 257 261 269 270 264 267 263 249 243 240 239 243 243 243 240 236 235 235 232 229 227 224 223 222 220 220 221 222 223 223 224 225 225 226 226 226 225 225 225 224 222 220 220 222 223 221 216 211 209 207 208 211
46 179 230 311 215 124 131 165 83 51 153 179 138 139 158 240 239 222 256 212 224 251 269 264 274 235 240 254 258 261 264 254 233 224 243 258 268 276 277 281 282 266 250 242 236 234 231 227 221 220 225 227 225 225 225 224 223 222 221 220 221 223 223 224 224 225 226 226 226 226 225 225 225 224 223 222 223 223 222 216 208 204 203 202 204 207
218 295 283 138 246 165 146 167 176 135 170 182 167 160 178 186 178 214 234 265 258 265 266 229 234 263 274 264 248 246 250 252 243 229 237 248 257 265 273 281 290 286 262 246 241 228 218 217 215 215 220 222 222 223 224 224 223 223 222 221 222 224 225 225 225 225 226 226 227 227 226 225 224 224 224 224 225 224 220 214 211 209 208 208 208 209
181 246 230 168 183 173 168 182 171 153 164 192 185 160 175 178 177 208 211 213 240 264 271 247 211 208 212 251 246 239 255 272 268 250 247 252 256 263 277 280 273 272 264 250 250 240 232 235 230 228 228 227 227 226 225 225 224 223 223 222 223 225 225 225 225 225 225 226 227 226 225 225 224 224 224 225 226 224 218 214 212 212 211 212 211 211
179 217 271 257 226 153 168 199 142 134 171 211 157 139 202 190 162 183 206 180 176 252 256 221 226 213 208 276 280 256 263 278 266 264 269 262 264 273 279 273 260 257 255 244 247 250 251 250 240 236 235 235 236 233 230 229 226 225 225 224 224 226 227 226 225 225 225 225 225 225 224 223 223 222 222 222 222 219 215 212 211 211 211 212 212 212
171 222 314 347 7 145 163 173 129 149 184 177 135 202 231 182 138 147 245 53 82 238 252 196 251 285 316 291 290 283 275 278 267 265 264 256 269 288 270 265 260 251 246 244 247 252 261 260 248 241 238 239 240 240 239 237 233 231 228 226 225 225 226 226 225 225 224 223 222 221 221 220 219 218 218 218 215 210 208 208 208 208 208 209 211 212
152 144 310 60 127 250 157 121 69 43 137 135 186 209 205 139 118 119 203 347 53 242 267 235 231 271 296 268 301 312 275 271 271 266 264 262 268 269 258 256 256 250 252 267 265 260 267 264 250 242 239 241 244 247 248 246 242 238 233 230 227 225 224 224 223 223 222 221 219 217 216 215 215 214 214 213 209 204 201 201 202 204 204 205 207 206
145 134 305 3 153 271 21 103 120 352 99 148 189 180 131 174 212 127 186 205 194 242 272 297 264 255 219 227 297 294 251 253 268 271 270 266 250 247 258 260 260 261 264 269 265 261 263 254 242 235 236 240 241 244 246 245 244 240 235 232 229 227 226 223 220 218 217 216 215 213 211 210 209 208 207 205 202 200 199 199 199 200 202 202 200 197
141 135 220 304 169 84 25 135 182 200 33 68 113 122 108 160 183 178 178 172 184 223 253 301 306 254 216 202 210 239 249 255 264 268 264 260 248 245 259 259 254 253 251 248 246 247 249 243 235 229 232 237 238 241 241 241 241 237 234 230 226 225 223 218 214 210 208 207 206 204 201 201 200 199 199 198 197 197 197 199 200 200 200 197 193 191
130 130 173 310 356 143 172 209 184 168 155 147 152 172 187 155 130 168 183 137 152 190 208 276 280 254 230 195 195 216 238 249 256 262 257 259 259 252 256 261 255 243 243 243 235 231 234 234 229 222 228 234 235 238 237 236 236 232 228 225 221 218 213 208 205 201 200 198 197 196 193 193 193 193 193 193 194 196 196 197 198 197 196 193 190 192
161 136 147 143 147 185 225 249 191 177 179 178 185 192 188 170 139 183 231 216 106 187 185 205 264 262 230 188 198 208 220 236 252 265 266 275 276 266 265 263 251 240 242 242 228 222 224 223 218 213 218 224 227 229 227 227 225 221 219 215 211 210 205 201 197 194 194 192 191 192 190 189 189 189 189 189 189 192 193 193 194 193 192 190 191 196
127 105 116 144 202 208 241 273 223 206 150 146 203 199 172 171 156 172 219 230 196 231 154 129 265 271 224 182 201 209 215 234 268 269 260 274 279 281 290 286 267 263 264 247 217 219 224 218 211 204 207 210 214 216 216 216 214 213 212 207 202 201 198 196 193 190 190 188 186 187 186 185 185 184 186 187 188 191 192 192 191 191 192 192 193 193
122 112 109 85 308 301 311 329 337 18 75 168 260 151 151 183 155 152 193 188 196 219 137 148 258 266 296 244 229 231 234 284 284 237 233 269 297 300 298 304 287 272 279 244 197 213 220 212 203 198 199 202 204 207 208 208 207 206 206 203 199 197 193 191 189 187 186 185 184 183 183 183 182 183 185 187 189 189 188 188 188 189 193 193 189 184
175 150 119 116 69 360 335 315 279 243 138 199 226 124 151 124 98 111 145 100 230 211 167 203 248 245 277 317 357 310 290 271 267 260 229 258 291 302 302 312 279 246 250 232 224 223 214 206 205 204 204 204 204 204 204 204 204 203 202 200 198 196 192 189 189 189 187 187 185 183 184 185 185 186 187 187 187 186 185 186 186 189 191 188 181 174
180 171 147 151 156 183 205 215 215 183 141 200 187 175 181 159 156 181 148 170 233 210 173 212 244 260 301 332 32 309 268 242 264 310 302 244 257 281 293 304 269 209 211 224 225 226 222 215 215 214 211 210 209 206 205 203 203 202 200 199 198 196 193 190 190 190 189 188 186 185 186 187 187 188 188 187 185 184 184 185 186 186 184 179 172 166
142 174 185 184 190 198 201 205 169 136 153 202 196 182 190 192 186 177 162 208 215 181 199 224 218 194 300 309 310 282 272 249 253 280 285 259 253 259 265 281 281 233 226 227 219 224 229 224 220 217 215 215 213 211 209 206 204 201 198 197 197 198 197 194 192 190 190 190 189 188 187 187 187 187 186 185 184 184 184 183 183 180 176 172 167 163
110 193 202 199 207 206 187 185 156 151 179 195 182 182 194 193 182 187 211 212 156 155 230 211 153 196 256 265 251 257 251 246 248 240 241 245 250 267 276 293 281 248 238 233 223 224 224 221 220 216 216 215 213 213 212 209 206 203 200 199 197 197 200 200 197 194 193 193 191 190 188 187 187 187 186 185 183 182 181 179 178 174 170 168 165 162
148 203 203 195 207 206 121 156 163 168 189 184 175 191 196 192 193 204 219 211 164 212 235 163 159 211 223 220 237 238 218 225 231 220 227 230 202 125 177 205 224 229 231 231 229 227 222 221 219 214 215 214 212 213 212 210 208 203 200 199 196 196 198 198 195 192 191 191 190 188 187 186 186 186 185 184 181 179 178 175 172 170 167 166 164 162
175 197 186 178 193 192 121 168 176 173 173 173 191 200 198 201 206 210 218 215 210 231 242 232 239 239 208 198 232 242 234 239 286 299 281 277 186 143 182 215 231 233 232 233 235 231 224 223 219 214 215 213 211 211 209 208 206 203 201 198 196 195 195 194 193 191 189 189 189 188 187 186 186 184 183 181 179 176 174 171 169 168 166 165 164 163
203 186 136 138 169 200 116 148 177 176 166 179 204 211 209 212 214 216 220 216 225 242 249 268 271 263 213 186 219 242 253 305 310 281 264 253 222 184 205 233 243 243 239 238 239 235 226 224 220 215 215 214 211 208 207 207 204 202 202 200 197 196 194 194 194 193 192 191 191 189 187 186 184 182 181 179 177 175 172 171 169 167 166 165 165 165
149 160 80 105 152 227 206 128 127 93 86 202 232 224 217 214 214 218 218 211 222 234 230 243 259 254 188 185 209 229 217 216 246 250 246 244 224 203 218 233 238 243 242 241 240 232 225 222 218 217 218 216 212 208 208 206 201 200 201 200 199 196 195 195 195 194 194 193 192 189 187 185 183 181 180 178 176 174 172 171 169 167 167 167 166 166
127 130 106 129 161 236 280 126 123 93 72 264 246 222 211 211 207 207 221 224 223 217 207 229 243 220 162 179 193 206 209 214 229 233 235 244 228 211 221 229 234 237 237 239 236 226 224 221 218 221 221 218 215 213 211 206 201 202 202 200 198 196 194 195 194 194 193 192 191 189 186 185 182 180 180 178 176 175 172 171 170 169 170 169 168 168
141 143 164 165 158 203 186 123 108 127 208 240 240 189 186 193 190 197 221 226 218 211 218 233 238 164 150 174 189 205 212 211 219 224 226 233 223 218 224 226 233 239 240 243 239 230 229 225 225 227 225 224 222 218 214 210 207 207 204 199 198 195 194 193 192 193 193 191 190 188 185 184 182 180 179 177 176 175 173 173 172 171 171 170 169 169
162 161 172 153 132 167 161 118 130 204 225 246 314 156 181 184 185 201 220 224 216 218 229 241 240 202 191 202 204 210 213 217 233 234 232 232 219 216 224 226 230 236 240 245 243 238 235 228 227 229 227 227 225 218 213 211 208 207 203 199 197 194 193 193 192 193 193 191 189 187 184 183 181 180 178 177 176 175 174 174 172 171 171 171 170 170
169 165 147 117 123 134 138 157 187 224 262 282 312 301 176 165 174 204 230 243 233 222 227 238 239 231 229 234 231 223 215 236 266 253 243 251 238 222 225 230 228 227 230 235 233 232 232 229 229 231 229 228 222 214 212 209 205 202 200 198 197 195 194 193 192 192 192 190 188 186 185 183 181 180 179 177 176 175 175 174 173 172 172 171 171 170
162 156 139 146 174 133 143 198 232 310 303 259 241 216 159 149 156 175 219 251 235 216 217 230 235 236 239 241 237 227 181 334 287 267 245 254 249 234 226 232 237 236 234 237 238 240 242 243 242 239 233 226 218 213 211 206 202 199 196 195 195 195 194 194 194 194 193 191 190 188 186 184 183 181 180 178 178 176 176 175 174 174 174 173 171 171
148 159 158 169 191 106 119 192 260 271 258 240 204 171 171 168 159 155 186 248 233 209 212 224 227 225 234 242 238 213 117 271 270 265 235 237 241 236 229 235 244 246 246 246 248 250 252 251 249 241 230 220 215 213 210 204 199 195 192 193 194 194 194 194 196 196 195 194 193 190 188 187 185 183 181 179 179 178 177 177 176 175 176 176 175 174
104 105 139 146 153 133 147 177 200 224 243 226 164 171 177 165 138 120 157 264 233 190 195 208 214 218 227 237 228 145 133 252 266 261 232 231 233 228 226 235 243 247 252 256 258 261 260 253 242 230 218 212 212 211 206 201 196 192 192 194 193 193 194 196 198 199 197 196 194 192 190 188 187 185 182 181 181 180 178 178 177 177 177 178 178 175
114 107 134 148 169 172 172 192 217 234 246 221 185 176 166 147 120 107 227 256 216 175 182 187 202 218 222 218 182 133 183 233 251 249 235 232 238 232 227 235 245 252 261 267 266 264 260 244 222 209 207 211 213 208 202 197 193 192 194 193 192 194 199 201 201 200 198 196 194 193 191 190 188 187 184 182 182 181 180 179 178 178 177 178 178 175
121 153 175 173 175 172 180 205 251 262 234 221 204 169 147 128 117 148 213 229 188 181 187 178 194 217 210 181 164 178 213 225 232 253 257 231 247 252 244 247 255 263 273 278 275 262 245 228 219 216 218 220 214 204 198 193 190 192 194 192 193 201 205 204 201 199 197 196 195 193 192 191 190 188 186 184 183 182 181 181 180 179 178 178 177 175
160 167 186 172 163 163 179 194 259 275 229 184 159 157 148 140 169 207 211 189 160 177 188 184 195 206 193 181 188 204 226 236 232 246 269 238 232 256 272 273 270 266 268 273 270 245 226 220 218 219 223 220 209 202 197 192 191 193 193 194 202 207 207 202 199 198 197 196 195 194 192 192 191 189 187 186 184 182 181 180 180 180 179 178 177 175
170 161 181 188 166 138 154 176 220 261 217 145 125 133 204 191 195 195 172 160 178 168 169 192 207 200 181 187 205 213 228 247 240 228 243 248 247 260 269 268 260 254 253 255 248 229 217 213 213 213 214 210 204 201 196 192 193 194 195 201 208 208 203 200 199 197 195 194 194 193 192 191 190 189 187 186 184 182 180 178 178 179 179 179 177 176
178 171 182 199 185 160 178 196 208 217 173 151 145 165 203 204 184 152 148 169 208 183 169 190 214 210 183 184 204 211 220 243 245 224 227 242 246 247 253 253 246 243 241 239 237 227 213 209 208 205 205 204 200 198 197 196 194 195 201 207 209 204 199 199 197 194 193 193 192 192 192 191 190 189 188 186 184 182 179 178 178 178 179 180 179 177
204 194 172 181 191 182 195 209 213 162 168 178 172 170 183 190 190 163 157 160 188 203 182 182 208 213 194 188 199 202 207 228 234 218 213 228 233 231 240 249 244 239 237 234 232 223 212 208 204 198 198 200 199 199 200 199 198 199 204 208 206 201 198 196 193 193 193 192 192 192 191 190 189 190 189 186 185 184 182 180 179 178 179 180 180 180
221 189 122 123 194 258 269 229 191 147 204 207 215 195 187 191 191 175 167 168 181 186 177 186 206 208 195 185 187 202 216 217 219 223 222 226 232 229 235 249 249 241 234 229 224 215 207 204 201 197 194 196 199 200 201 202 202 205 207 206 203 201 198 194 192 192 192 192 193 192 191 189 188 188 188 187 187 187 185 184 182 181 180 180 181 182
257 181 142 133 163 200 244 227 194 182 197 205 213 260 254 218 194 174 181 194 192 185 188 201 203 183 173 174 182 208 223 208 203 225 225 217 228 228 223 237 246 238 230 227 222 212 202 198 198 195 195 198 199 201 202 203 205 208 209 206 203 200 198 195 193 192 191 192 192 191 190 189 187 186 186 186 186 186 186 186 185 184 182 181 182 183
207 167 162 172 169 180 224 239 189 156 190 211 213 219 247 233 208 199 194 165 156 171 189 200 177 149 164 182 189 204 218 207 204 221 222 211 222 223 214 221 225 219 221 224 219 210 205 204 203 201 202 204 201 201 203 204 205 209 210 207 203 200 196 195 194 193 193 192 191 190 189 188 186 185 185 185 186 187 187 187 187 187 188 188 189 188
133 153 174 180 181 213 265 275 91 82 253 248 232 220 224 221 207 204 184 123 131 153 159 175 189 172 187 199 185 187 207 219 214 217 220 220 217 205 202 210 210 209 213 215 215 213 211 212 211 209 209 209 205 203 203 204 206 209 209 206 203 200 196 194 194 194 193 191 190 189 188 188 187 187 185 185 187 188 189 190 190 191 192 193 193 193
137 163 174 156 176 222 239 202 155 143 205 230 218 212 214 203 178 181 176 171 192 189 163 162 167 52 106 135 147 167 201 247 237 209 232 251 234 177 182 186 192 207 215 215 217 219 219 220 220 217 215 213 209 205 204 206 207 208 209 207 204 201 198 194 192 192 192 191 191 190 189 189 188 188 188 187 186 187 188 190 192 194 194 193 194 200
181 179 168 165 193 223 221 191 180 192 216 228 214 198 190 164 152 169 184 194 198 183 158 160 162 143 84 24 78 144 153 8 150 175 222 280 277 212 193 188 193 208 216 216 217 221 224 226 226 225 222 218 213 209 208 208 208 208 208 208 205 203 201 196 192 191 192 193 193 193 192 191 190 190 190 190 189 187 185 185 188 193 196 196 200 207